FW6303 Weather Reports


time (UTC)temp
C
wind
direction
speed
KPH
gust
KPH
rain 1hr
cm
rain 24hr
cm
rain mn
cm
humidity
%
barometer
mb
20260504235025 23 43 0.0 6.4 0.00 0.00 0.00 32 1014.4
20260504234020 23 291 3.2 9.7 0.00 0.00 0.00 31 1014.5
20260504233028 23 308 3.2 9.7 0.00 0.00 0.00 31 1014.5
20260504232032 23 294 3.2 11.3 0.00 0.00 0.00 30 1014.7
20260504231024 23 111 1.6 9.7 0.00 0.00 0.00 32 1014.7
20260504230035 24 145 1.6 6.4 0.00 0.00 0.00 31 1014.7
20260504225028 24 280 1.6 6.4 0.00 0.00 0.00 31 1014.7
20260504224038 24 94 1.6 6.4 0.00 0.00 0.00 29 1014.7
20260504223026 24 289 4.8 11.3 0.00 0.00 0.00 29 1014.7
20260504222035 25 278 3.2 9.7 0.00 0.00 0.00 29 1014.8
20260504221028 25 65 0.0 4.8 0.00 0.00 0.00 29 1014.8
20260504220036 25 70 1.6 4.8 0.00 0.00 0.00 27 1014.7
20260504215023 25 308 1.6 4.8 0.00 0.00 0.00 28 1014.7
20260504214036 25 72 1.6 4.8 0.00 0.00 0.00 28 1014.7
20260504213028 25 265 3.2 6.4 0.00 0.00 0.00 27 1014.6
20260504212035 26 197 1.6 9.7 0.00 0.00 0.00 27 1014.6
20260504211027 25 300 3.2 11.3 0.00 0.00 0.00 28 1014.7
20260504210035 26 91 3.2 11.3 0.00 0.00 0.00 27 1014.7
20260504205027 27 280 3.2 6.4 0.00 0.00 0.00 25 1014.7
20260504204036 26 323 1.6 9.7 0.00 0.00 0.00 25 1014.9
20260504203048 27 46 3.2 9.7 0.00 0.00 0.00 25 1014.7
20260504202031 27 132 3.2 12.9 0.00 0.00 0.00 26 1014.9
20260504201027 27 97 1.6 4.8 0.00 0.00 0.00 26 1015.1
20260504200032 26 50 1.6 3.2 0.00 0.00 0.00 26 1015.1
20260504195024 26 92 3.2 9.7 0.00 0.00 0.00 26 1015.3
20260504194036 26 27 1.6 4.8 0.00 0.00 0.00 28 1015.6
20260504193028 26 255 3.2 9.7 0.00 0.00 0.00 26 1015.6
20260504192035 26 115 3.2 9.7 0.00 0.00 0.00 26 1015.7
20260504191025 26 244 1.6 4.8 0.00 0.00 0.00 27 1015.9
20260504190036 26 73 1.6 6.4 0.00 0.00 0.00 28 1015.9
20260504185023 26 50 1.6 4.8 0.00 0.00 0.00 28 1016.1
20260504184035 26 99 1.6 9.7 0.00 0.00 0.00 27 1016.4
20260504183027 25 96 3.2 6.4 0.00 0.00 0.00 27 1016.5
20260504182054 26 353 1.6 6.4 0.00 0.00 0.00 29 1016.5
20260504181026 25 63 1.6 3.2 0.00 0.00 0.00 31 1016.7
20260504180031 25 75 0.0 3.2 0.00 0.00 0.00 32 1016.6
20260504175026 25 61 1.6 3.2 0.00 0.00 0.00 32 1016.9
20260504174034 25 68 0.0 4.8 0.00 0.00 0.00 31 1017.1
20260504173029 25 74 0.0 3.2 0.00 0.00 0.00 31 1017.2
20260504172019 24 53 1.6 9.7 0.00 0.00 0.00 33 1017.3
20260504171029 23 100 1.6 3.2 0.00 0.00 0.00 34 1017.5
20260504151023 21 39 1.6 4.8 0.00 0.00 0.00 37 1018.5
20260504141027 18 270 3.2 9.7 0.00 0.00 0.00 42 1018.9
20260504081028 10 0.0 0.0 0.00 0.00 0.00 69 1018.0
20260504045028 12 84 0.0 1.6 0.00 0.00 0.00 57 1018.7
20260504044053 12 84 0.0 1.6 0.00 0.00 0.00 56 1018.9
20260504043028 13 85 0.0 1.6 0.00 0.00 0.00 55 1018.9
20260504042032 13 83 0.0 1.6 0.00 0.00 0.00 54 1018.9
20260504041027 13 61 0.0 1.6 0.00 0.00 0.00 54 1018.9
20260504040016 13 0.0 0.0 0.00 0.00 0.00 54 1018.9
20260504035028 13 65 0.0 1.6 0.00 0.00 0.00 53 1019.0
20260504034017 13 76 0.0 1.6 0.00 0.00 0.00 52 1018.9
20260504033023 13 58 0.0 1.6 0.00 0.00 0.00 51 1018.9
20260504032035 13 64 0.0 1.6 0.00 0.00 0.00 50 1018.9
20260504031024 13 69 0.0 1.6 0.00 0.00 0.00 49 1018.9
20260504030139 14 0.0 0.0 0.00 0.00 0.00 47 1018.9
20260504025028 14 0.0 0.0 0.00 0.00 0.00 46 1018.7
20260504024115 15 0.0 0.0 0.00 0.00 0.00 45 1018.6
20260504023027 15 69 0.0 1.6 0.00 0.00 0.00 45 1018.6
20260504022037 15 69 0.0 1.6 0.00 0.00 0.00 45 1018.5
20260504021024 15 0.0 1.6 0.00 0.00 0.00 44 1018.4
20260504020055 15 69 0.0 1.6 0.00 0.00 0.00 44 1018.2
20260504015028 15 69 0.0 1.6 0.00 0.00 0.00 42 1018.1
20260504014033 15 0.0 0.0 0.00 0.00 0.00 41 1018.0
20260504013047 15 0.0 0.0 0.00 0.00 0.00 41 1017.9
20260504012032 16 0.0 0.0 0.00 0.00 0.00 40 1017.8
20260504011024 16 0.0 0.0 0.00 0.00 0.00 39 1017.6
20260504010037 16 0.0 0.0 0.00 0.00 0.00 38 1017.8
20260504005027 17 0.0 0.0 0.00 0.00 0.00 37 1017.7
20260504004035 17 69 0.0 1.6 0.00 0.00 0.00 37 1017.5
20260504003029 17 0.0 1.6 0.00 0.00 0.00 37 1017.5
20260504002032 18 62 1.6 3.2 0.00 0.00 0.00 36 1017.4
20260504001027 18 59 1.6 1.6 0.00 0.00 0.00 35 1017.4
20260504000034 18 67 0.0 1.6 0.00 0.00 0.00 35 1017.2